Location: 433rd Scouts Home(Lloyd Manor Park, Etobicoke )
(43.6722°N, 79.5542°W)
Time: 10:47:05
(UTC-04:00)

Nauka - Pass Details

Date: 27 September 2021
Orbit: 417 x 423 km, 51.6° (Epoch: 26 October)

Event Time Altitude Azimuth Distance (km) Brightness Sun altitude
Rises 20:24:02 0° 299° (WNW) 2,365 ? -14.9°
Reaches altitude 10° 20:26:27 10° 315° (NW) 1,501 ? -15.3°
Maximum altitude 20:29:10 22° 9° (N) 968 ? -15.8°
Enters shadow 20:30:26 18° 41° (NE) 1,107 ? -16.0°
